Location: Dumpton Point
(51.3500°N, 1.4433°E)
Time: 13:10:38
(UTC+00:00)

Envisat - Pass Details

Date: 09 December 2021
Orbit: 764 x 766 km, 98.2° (Epoch: 23 January)

Event Time Altitude Azimuth Distance (km) Brightness Sun altitude
Rises 17:04:05 0° 203° (SSW) 3,222 7.0 -11.4°
Reaches altitude 10° 17:06:51 10° 218° (SW) 2,302 6.5 -11.8°
Maximum altitude 17:10:50 23° 269° (W) 1,601 5.6 -12.3°
Drops below altitude 10° 17:14:49 10° 321° (NW) 2,315 5.7 -12.9°
Sets 17:17:37 0° 336° (NNW) 3,247 6.3 -13.3°
